DEL08 13.10 39.29153 -75.5944 0.000 0.000 20191208_2120 DEDOT DE 1 & DE 12, Smyrna DE USA current weather conditions

sailwx.info

Wind at 0 knots gusting 1

Air temperature 4.6° C
Dewpoint 0.6° C

Last reported at 2019-Dec-08 23:00 UTC.
Time now 2019-Dec-08 23:38 UTC

Location: N 39°17' W 075°36'.
View on Google Maps.

See reports from other nearby stations

  
Tides and Currents Weather Stations Pressure Air Temp Water Temp Dewpoint Dewpoint Depression Visibility Wind Speed Wind Dir Waves Ship Positions
date/time (UTC)wind fromknots sea level pressurealtimeterstation pressurevisibilityair tempwater tempwave heightnotes
2019-Dec-08 23:00 4.6
2019-Dec-08 22:50 135 0 gusting 1 4.6
2019-Dec-08 22:45 125 0 gusting 1 4.7
2019-Dec-08 22:40 4.7
2019-Dec-08 22:35 120 0 gusting 1 4.7
2019-Dec-08 22:30 140 0 gusting 1 4.6
2019-Dec-08 22:25 4.7
2019-Dec-08 22:20 115 0 gusting 1 4.8
2019-Dec-08 22:15 125 0 gusting 1 5.0
2019-Dec-08 22:10 130 0 gusting 1 5.1
2019-Dec-08 22:05 110 0 gusting 1 5.1
2019-Dec-08 22:00 5.1
2019-Dec-08 21:55 5.2
2019-Dec-08 21:50 5.3
2019-Dec-08 21:45 115 0 gusting 1 5.6
2019-Dec-08 21:40 110 0 gusting 3 5.6
2019-Dec-08 21:35 130 0 gusting 3 5.7
2019-Dec-08 21:30 135 0 gusting 1 5.8
2019-Dec-08 21:25 125 0 gusting 2 5.8
2019-Dec-08 21:20 140 0 gusting 2 6.1
2019-Dec-08 21:15 125 0 gusting 2 6.1
2019-Dec-08 21:10 110 1 gusting 4 6.2
2019-Dec-08 21:05 145 0 gusting 4 6.3
2019-Dec-08 21:00 115 1 gusting 3 6.3
2019-Dec-08 20:55 6.5
2019-Dec-08 20:50 140 1 gusting 3 6.6
2019-Dec-08 20:45 140 0 gusting 3 6.6
2019-Dec-08 20:40 110 1 gusting 3 6.6
2019-Dec-08 20:35 6.6
2019-Dec-08 20:30 6.7
2019-Dec-08 20:25 110 1 gusting 3 6.7
2019-Dec-08 20:20 6.7
2019-Dec-08 20:15 6.8
2019-Dec-08 20:10 115 1 gusting 4 6.8
2019-Dec-08 20:05 115 1 gusting 4 6.8
2019-Dec-08 20:00 180 0 gusting 5 7.0
2019-Dec-08 19:55 130 2 gusting 5 7.0
2019-Dec-08 19:50 130 1 gusting 5 7.0
2019-Dec-08 19:45 125 1 gusting 6 7.0
2019-Dec-08 19:40 110 2 gusting 6 7.0
2019-Dec-08 19:35 105 1 gusting 4 7.0
2019-Dec-08 19:30 130 1 gusting 3 7.0
2019-Dec-08 19:25 145 1 gusting 4 7.0
2019-Dec-08 19:20 155 1 gusting 4 7.0
2019-Dec-08 19:15 145 1 gusting 4 7.1
2019-Dec-08 19:10 7.1
2019-Dec-08 19:05 100 2 gusting 4 7.0
2019-Dec-08 19:00 140 1 gusting 4 7.1
2019-Dec-08 18:55 7.1
2019-Dec-08 18:50 140 1 gusting 4 7.1
2019-Dec-08 18:45 125 1 gusting 4 7.1
2019-Dec-08 18:40 150 1 gusting 3 7.0
2019-Dec-08 18:35 7.0
2019-Dec-08 18:30 125 1 gusting 4 6.7
2019-Dec-08 18:25 130 2 gusting 4 6.7
2019-Dec-08 18:20 115 1 gusting 4 6.8
2019-Dec-08 18:15 115 2 gusting 4 6.6
2019-Dec-08 18:10 145 2 gusting 4 6.6
2019-Dec-08 18:05 115 2 gusting 6 6.6
2019-Dec-08 18:00 130 1 gusting 6 6.6
2019-Dec-08 17:55 125 1 gusting 3 6.5
2019-Dec-08 17:50 140 1 gusting 3 6.3
2019-Dec-08 17:45 6.3
2019-Dec-08 17:40 205 1 gusting 3 6.3
2019-Dec-08 17:35 6.1
2019-Dec-08 17:30 6.0
2019-Dec-08 17:25 125 2 gusting 3 5.8
2019-Dec-08 17:20 5.8
2019-Dec-08 17:15 5.6
2019-Dec-08 17:10 155 1 gusting 3 5.7
2019-Dec-08 17:05 145 1 gusting 3 5.6
2019-Dec-08 17:00 140 1 gusting 5 5.6
2019-Dec-08 16:55 145 1 gusting 5 5.6
2019-Dec-08 16:50 115 2 gusting 5 5.6
2019-Dec-08 16:45 5.6
2019-Dec-08 16:40 170 1 gusting 5 5.5
2019-Dec-08 16:35 140 2 gusting 5 5.5
2019-Dec-08 16:30 130 1 gusting 5 5.3
2019-Dec-08 16:25 125 3 gusting 5 5.5
2019-Dec-08 16:20 145 1 gusting 3 5.3
2019-Dec-08 16:15 135 0 gusting 3 5.5
2019-Dec-08 16:10 145 1 gusting 4 5.3
2019-Dec-08 16:05 140 1 gusting 3 5.3
2019-Dec-08 16:00 135 1 gusting 4 5.3
2019-Dec-08 15:55 135 2 gusting 4 5.1
2019-Dec-08 15:50 180 1 gusting 3 5.1
2019-Dec-08 15:45 5.1
2019-Dec-08 15:40 120 1 gusting 3 5.0
2019-Dec-08 15:35 155 0 gusting 2 4.8
2019-Dec-08 15:30 140 1 gusting 3 4.6
2019-Dec-08 15:25 120 1 gusting 5 4.6
2019-Dec-08 15:20 150 2 gusting 5 4.5
2019-Dec-08 15:15 110 1 gusting 3 4.3
2019-Dec-08 15:10 4.1
2019-Dec-08 15:05 105 1 gusting 4 3.7
2019-Dec-08 15:00 120 1 gusting 3 3.5
2019-Dec-08 14:55 105 1 gusting 3 3.1
2019-Dec-08 14:50 110 1 gusting 3 2.7
2019-Dec-08 14:45 105 1 gusting 3 2.5
2019-Dec-08 14:40 115 0 gusting 2 2.2
2019-Dec-08 14:35 080 1 gusting 3 1.9
2019-Dec-08 14:30 080 1 gusting 3 1.5
2019-Dec-08 14:25 090 1 gusting 3 1.1
2019-Dec-08 14:20 095 1 gusting 3 0.8
2019-Dec-08 14:15 075 2 gusting 3 0.6
2019-Dec-08 14:10 095 1 gusting 2 0.5
2019-Dec-08 14:05 080 2 gusting 2 0.5
2019-Dec-08 14:00 110 1 gusting 2 0.3
2019-Dec-08 13:55 0.1
2019-Dec-08 13:50 090 0 gusting 2 -0.1
2019-Dec-08 13:45 090 0 gusting 2 -0.4
2019-Dec-08 13:40 090 1 gusting 1 -0.5
2019-Dec-08 13:35 065 0 gusting 1 -0.9
2019-Dec-08 13:30 075 1 gusting 1 -0.9
2019-Dec-08 13:25 075 1 gusting 1 -1.1
2019-Dec-08 13:20 080 1 gusting 1 -1.4
2019-Dec-08 13:15 080 1 gusting 1 -1.6
2019-Dec-08 13:10 065 1 gusting 1 -1.9
2019-Dec-08 13:05 055 0 gusting 1 -2.3
2019-Dec-08 13:00 050 0 gusting 1 -2.4
2019-Dec-08 12:55 030 0 gusting 1 -2.6
2019-Dec-08 12:50 035 0 gusting 1 -2.6
2019-Dec-08 12:45 060 1 gusting 1 -2.9
2019-Dec-08 12:40 050 1 gusting 1 -2.9
2019-Dec-08 12:35 045 0 gusting 1 -3.0
2019-Dec-08 12:30 045 1 gusting 1 -3.0
2019-Dec-08 12:25 055 0 gusting 1 -3.1
2019-Dec-08 12:20 045 0 gusting 1 -3.1
2019-Dec-08 12:15 050 0 gusting 1 -3.0
2019-Dec-08 12:10 -2.9
2019-Dec-08 12:05 060 1 gusting 2 -2.9
2019-Dec-08 12:00 070 1 gusting 2 -2.9
2019-Dec-08 11:55 065 1 gusting 2 -2.9
2019-Dec-08 11:50 075 1 gusting 2 -2.9
2019-Dec-08 11:45 070 2 gusting 2 -2.9
2019-Dec-08 11:40 080 1 gusting 2 -2.9
2019-Dec-08 11:35 075 1 gusting 2 -2.9
2019-Dec-08 11:30 085 1 gusting 2 -2.9
2019-Dec-08 11:25 060 1 gusting 2 -2.9
2019-Dec-08 11:20 080 1 gusting 2 -2.9
2019-Dec-08 11:15 065 1 gusting 2 -3.0
2019-Dec-08 11:10 055 1 gusting 2 -3.1
2019-Dec-08 11:05 070 1 gusting 2 -3.0
2019-Dec-08 11:00 065 1 gusting 2 -3.1
2019-Dec-08 10:55 060 1 gusting 2 -3.0
2019-Dec-08 10:50 055 1 gusting 2 -3.0
2019-Dec-08 10:45 045 1 gusting 2 -3.0
2019-Dec-08 10:40 050 1 gusting 1 -3.0
2019-Dec-08 10:35 040 0 gusting 2 -2.9
2019-Dec-08 10:30 075 1 gusting 2 -2.9
2019-Dec-08 10:25 080 1 gusting 2 -2.9
2019-Dec-08 10:20 060 1 gusting 2 -2.6
2019-Dec-08 10:15 050 1 gusting 1 -2.9
2019-Dec-08 10:10 050 1 gusting 1 -2.9
2019-Dec-08 10:05 065 1 gusting 1 -2.8
2019-Dec-08 09:55 040 1 gusting 1 -2.9
2019-Dec-08 09:50 045 0 gusting 1 -2.8
2019-Dec-08 09:45 055 1 gusting 1 -2.8
2019-Dec-08 09:40 055 1 gusting 1 -2.9
2019-Dec-08 09:35 055 1 gusting 1 -2.9
2019-Dec-08 09:30 055 1 gusting 1 -2.9
2019-Dec-08 09:25 085 1 gusting 1 -2.9
2019-Dec-08 09:20 085 1 gusting 2 -3.0
2019-Dec-08 09:15 095 1 gusting 2 -3.1
2019-Dec-08 09:10 090 1 gusting 1 -3.1
2019-Dec-08 09:05 095 1 gusting 1 -3.4
2019-Dec-08 09:00 100 0 gusting 0 -3.3
2019-Dec-08 08:55 085 0 gusting 1 -3.1
2019-Dec-08 08:50 080 0 gusting 1 -3.0
2019-Dec-08 08:45 050 0 gusting 1 -2.9
2019-Dec-08 08:40 055 0 gusting 1 -2.9
2019-Dec-08 08:35 065 1 gusting 1 -3.0
2019-Dec-08 08:30 050 1 gusting 1 -3.1
2019-Dec-08 08:25 045 0 gusting 1 -3.1
2019-Dec-08 08:20 -3.1
2019-Dec-08 08:15 -3.0
2019-Dec-08 08:10 -3.0
2019-Dec-08 08:05 -3.0
2019-Dec-08 08:00 050 0 gusting 1 -2.9
2019-Dec-08 07:55 070 1 gusting 1 -2.9
2019-Dec-08 07:50 055 0 gusting 1 -2.9
2019-Dec-08 07:45 050 0 gusting 1 -2.9
2019-Dec-08 07:40 060 1 gusting 1 -2.9
2019-Dec-08 07:35 050 0 gusting 1 -2.9
2019-Dec-08 07:30 080 1 gusting 1 -2.8
2019-Dec-08 07:25 080 1 gusting 1 -2.8
2019-Dec-08 07:20 085 1 gusting 1 -2.8
2019-Dec-08 07:15 080 1 gusting 1 -2.9
2019-Dec-08 07:10 070 1 gusting 1 -2.9
2019-Dec-08 07:05 095 0 gusting 1 -2.9
2019-Dec-08 07:00 090 1 gusting 1 -2.9
2019-Dec-08 06:55 100 1 gusting 1 -3.0
2019-Dec-08 06:50 090 0 gusting 1 -3.1
2019-Dec-08 06:45 120 0 gusting 1 -3.1
2019-Dec-08 06:40 110 0 gusting 1 -3.1
2019-Dec-08 06:35 105 0 gusting 1 -2.9
2019-Dec-08 06:30 070 1 gusting 1 -2.9
2019-Dec-08 06:25 070 0 gusting 1 -2.9
2019-Dec-08 06:20 105 0 gusting 1 -3.0
2019-Dec-08 06:15 -3.0
2019-Dec-08 06:10 -2.9
2019-Dec-08 06:05 -2.9
2019-Dec-08 06:00 090 0 gusting 1 -2.9
2019-Dec-08 05:55 080 0 gusting 1 -2.9
2019-Dec-08 05:50 045 0 gusting 1 -3.0
2019-Dec-08 05:45 -3.0
2019-Dec-08 05:40 -3.0
2019-Dec-08 05:35 -3.0
2019-Dec-08 05:30 -3.0
2019-Dec-08 05:25 055 0 gusting 1 -2.9
2019-Dec-08 05:20 055 1 gusting 1 -2.9
2019-Dec-08 05:15 050 1 gusting 1 -2.9
2019-Dec-08 05:10 045 1 gusting 1 -2.9
2019-Dec-08 05:05 030 1 gusting 1 -2.8
2019-Dec-08 05:00 030 1 gusting 1 -2.8
2019-Dec-08 04:55 025 1 gusting 1 -2.8
2019-Dec-08 04:50 030 1 gusting 2 -2.6
2019-Dec-08 04:45 045 1 gusting 2 -2.5
2019-Dec-08 04:40 045 1 gusting 1 -2.6
2019-Dec-08 04:35 035 1 gusting 1 -2.6
2019-Dec-08 04:30 020 0 gusting 1 -2.5
2019-Dec-08 04:25 035 0 gusting 1 -2.4
2019-Dec-08 04:20 060 0 gusting 1 -2.4
2019-Dec-08 04:15 040 0 gusting 1 -2.3
2019-Dec-08 04:10 -2.1
2019-Dec-08 04:05 070 1 gusting 1 -2.1
2019-Dec-08 04:00 055 0 gusting 1 -2.1
2019-Dec-08 03:55 070 0 gusting 0 -2.1
2019-Dec-08 03:50 055 0 gusting 1 -2.3
2019-Dec-08 03:45 -2.3
2019-Dec-08 03:40 285 1 gusting 1 -2.3
2019-Dec-08 03:35 270 1 gusting 1 -2.3
2019-Dec-08 03:30 240 1 gusting 2 -2.4
2019-Dec-08 03:25 245 1 gusting 2 -2.3
2019-Dec-08 03:20 265 2 gusting 2 -2.3
2019-Dec-08 03:15 270 2 gusting 2 -2.3
2019-Dec-08 03:10 270 1 gusting 1 -2.3
2019-Dec-08 03:05 -2.3
2019-Dec-08 03:00 -2.1
2019-Dec-08 02:55 -1.9
2019-Dec-08 02:50 085 0 gusting 1 -1.8
2019-Dec-08 02:45 095 0 gusting 1 -1.8
2019-Dec-08 02:40 -1.9
2019-Dec-08 02:35 260 1 gusting 1 -1.9
2019-Dec-08 02:30 260 1 gusting 1 -1.8
2019-Dec-08 02:25 245 1 gusting 1 -1.8
2019-Dec-08 02:20 235 1 gusting 1 -1.8
2019-Dec-08 02:15 255 1 gusting 1 -1.8
2019-Dec-08 02:10 235 1 gusting 1 -1.8
2019-Dec-08 02:05 230 1 gusting 2 -1.6
2019-Dec-08 02:00 240 1 gusting 2 -1.5
2019-Dec-08 01:55 235 1 gusting 1 -1.5
2019-Dec-08 01:45 230 1 gusting 1 -1.5
2019-Dec-08 01:40 220 0 gusting 0 -1.5
2019-Dec-08 01:35 210 0 gusting 1 -1.4
2019-Dec-08 01:30 220 0 gusting 1 -1.1
2019-Dec-08 01:25 220 0 gusting 1 -1.0
2019-Dec-08 01:20 230 0 gusting 1 -0.9
2019-Dec-08 01:15 -0.8
2019-Dec-08 01:10 270 1 gusting 2 -0.5
2019-Dec-08 01:05 275 1 gusting 2 -0.4
2019-Dec-08 01:00 280 1 gusting 2 -0.4
2019-Dec-08 00:55 285 0 gusting 2 -0.3
2019-Dec-08 00:50 310 1 gusting 2 -0.3
2019-Dec-08 00:45 305 1 gusting 2 -0.3
2019-Dec-08 00:40 295 1 gusting 2 -0.3
2019-Dec-08 00:35 295 1 gusting 2 -0.3
2019-Dec-08 00:30 295 1 gusting 2 -0.3
2019-Dec-08 00:25 290 2 gusting 3 -0.3
2019-Dec-08 00:20 285 2 gusting 3 -0.3
2019-Dec-08 00:15 280 2 gusting 2 -0.0
2019-Dec-08 00:10 0.1
2019-Dec-08 00:05 0.1
2019-Dec-08 00:00 275 1 gusting 2 0.1
2019-Dec-07 23:55 270 2 gusting 2 0.2
2019-Dec-07 23:50 245 1 gusting 2 0.3
2019-Dec-07 23:45 260 1 gusting 2 0.3
2019-Dec-07 23:40 265 2 gusting 2 0.5
2019-Dec-07 23:35 265 1 gusting 1 0.6
2019-Dec-07 23:30 235 1 gusting 1 0.7
2019-Dec-07 23:25 260 1 gusting 1 1.0
2019-Dec-07 23:20 275 1 gusting 1 1.1
2019-Dec-07 23:15 260 1 gusting 1 1.1
2019-Dec-07 23:10 265 0 gusting 1 1.2
2019-Dec-07 23:05 250 1 gusting 1 1.5
2019-Dec-07 23:00 265 1 gusting 1 1.6
2019-Dec-07 22:55 280 0 gusting 1 1.6
2019-Dec-07 22:50 270 1 gusting 1 1.7
2019-Dec-07 22:45 280 1 gusting 1 1.9
2019-Dec-07 22:40 285 1 gusting 1 1.9
2019-Dec-07 22:35 285 0 gusting 1 1.9
2019-Dec-07 22:30 270 0 gusting 1 1.9
2019-Dec-07 22:25 280 0 gusting 1 2.0
2019-Dec-07 22:20 245 0 gusting 1 2.1
2019-Dec-07 22:15 240 1 gusting 1 2.2
2019-Dec-07 22:10 230 0 gusting 1 2.5
2019-Dec-07 22:05 245 0 gusting 1 2.6
2019-Dec-07 22:00 3.0
2019-Dec-07 21:55 270 0 gusting 2 3.2
2019-Dec-07 21:50 285 1 gusting 2 3.5
2019-Dec-07 21:45 290 0 gusting 2 3.6
2019-Dec-07 21:40 3.7
2019-Dec-07 21:35 280 1 gusting 4 4.0
2019-Dec-07 21:30 300 2 gusting 4 4.1
2019-Dec-07 21:25 280 2 gusting 3 4.1
2019-Dec-07 21:20 335 1 gusting 4 4.2
2019-Dec-07 21:15 295 1 gusting 5 4.3
2019-Dec-07 21:10 290 4 gusting 5 4.5
2019-Dec-07 21:05 340 1 gusting 5 4.6
2019-Dec-07 21:00 020 1 gusting 4 4.6
2019-Dec-07 20:55 285 2 gusting 4 4.6
2019-Dec-07 20:50 335 1 gusting 6 4.6
2019-Dec-07 20:45 345 1 gusting 7 4.6
2019-Dec-07 20:40 345 4 gusting 7 4.6
2019-Dec-07 20:35 325 2 gusting 6 4.7
2019-Dec-07 20:30 320 2 gusting 6 4.8
2019-Dec-07 20:25 300 3 gusting 6 4.8
2019-Dec-07 20:20 335 4 gusting 6 5.0
2019-Dec-07 20:15 5.0
2019-Dec-07 20:10 355 4 gusting 9 5.1
2019-Dec-07 20:05 350 2 gusting 9 5.1
2019-Dec-07 20:00 310 5 gusting 8 5.1
2019-Dec-07 19:55 345 2 gusting 8 5.1
2019-Dec-07 19:50 015 2 gusting 8 5.1
2019-Dec-07 19:45 015 2 gusting 8 5.1
2019-Dec-07 19:40 5.3
2019-Dec-07 19:35 285 4 gusting 7 5.3
2019-Dec-07 19:30 265 3 gusting 6 5.2
2019-Dec-07 19:25 285 4 gusting 7 5.2
2019-Dec-07 19:20 345 1 gusting 7 5.1
2019-Dec-07 19:15 345 5 gusting 7 5.2
2019-Dec-07 19:10 315 4 gusting 11 5.5
2019-Dec-07 19:05 270 4 gusting 11 5.6
2019-Dec-07 19:00 285 5 gusting 10 5.6
2019-Dec-07 18:55 310 3 gusting 8 5.3
2019-Dec-07 18:50 325 5 gusting 8 5.1
2019-Dec-07 18:45 020 2 gusting 7 5.1
2019-Dec-07 18:40 320 5 gusting 7 5.2
2019-Dec-07 18:35 285 3 gusting 6 5.1
2019-Dec-07 18:30 350 4 gusting 6 5.3
2019-Dec-07 18:25 5.2
2019-Dec-07 18:20 030 3 gusting 8 5.0
2019-Dec-07 18:15 025 4 gusting 8 4.8
2019-Dec-07 18:10 305 3 gusting 7 4.5
2019-Dec-07 18:05 280 4 gusting 7 4.5
2019-Dec-07 18:00 290 4 gusting 7 4.6
2019-Dec-07 17:55 325 2 gusting 6 4.5
2019-Dec-07 17:50 280 3 gusting 7 4.6
2019-Dec-07 17:45 290 2 gusting 11 4.6
2019-Dec-07 17:40 290 6 gusting 11 4.5
2019-Dec-07 17:35 290 3 gusting 7 4.7
2019-Dec-07 17:30 4.7
2019-Dec-07 17:25 4.6
2019-Dec-07 17:20 300 6 gusting 8 4.5
2019-Dec-07 17:15 345 4 gusting 7 4.6
2019-Dec-07 17:10 325 4 gusting 6 4.6
2019-Dec-07 17:05 275 4 gusting 8 4.6
2019-Dec-07 17:00 285 5 gusting 8 4.6
2019-Dec-07 16:55 305 5 gusting 8 4.8
2019-Dec-07 16:50 320 2 gusting 6 5.0
2019-Dec-07 16:45 350 3 gusting 6 4.8
2019-Dec-07 16:40 345 2 gusting 6 4.8
2019-Dec-07 16:35 340 3 gusting 6 4.8
2019-Dec-07 16:30 010 4 gusting 6 4.7
2019-Dec-07 16:25 290 4 gusting 6 4.8
2019-Dec-07 16:20 325 3 gusting 8 4.7
2019-Dec-07 16:15 285 4 gusting 8 4.6
2019-Dec-07 16:10 265 4 gusting 6 4.6
2019-Dec-07 16:05 330 5 gusting 6 4.6
2019-Dec-07 16:00 335 2 gusting 6 4.6
2019-Dec-07 15:55 045 4 gusting 9 4.5
2019-Dec-07 15:50 355 4 gusting 9 4.7
2019-Dec-07 15:45 020 4 gusting 9 4.7
2019-Dec-07 15:40 020 5 gusting 7 4.5
2019-Dec-07 15:35 045 4 gusting 7 4.5
2019-Dec-07 15:30 025 5 gusting 9 4.3
2019-Dec-07 15:25 050 6 gusting 9 4.2
2019-Dec-07 15:20 040 5 gusting 9 4.1
2019-Dec-07 15:15 060 6 gusting 10 4.1
2019-Dec-07 15:10 045 6 gusting 10 4.0
2019-Dec-07 15:05 055 5 gusting 9 4.2
2019-Dec-07 15:00 4.3
2019-Dec-07 14:55 020 5 gusting 7 4.1
2019-Dec-07 14:50 025 5 gusting 9 4.1
2019-Dec-07 14:45 030 7 gusting 9 4.1
2019-Dec-07 14:40 020 3 gusting 6 4.1
2019-Dec-07 14:35 025 2 gusting 7 3.7
2019-Dec-07 14:30 030 6 gusting 7 3.7
2019-Dec-07 14:25 035 6 gusting 7 3.6
2019-Dec-07 14:20 345 5 gusting 7 3.6
2019-Dec-07 14:15 025 2 gusting 4 3.6
2019-Dec-07 14:10 355 1 gusting 4 3.2
2019-Dec-07 14:05 035 2 gusting 5 3.1
2019-Dec-07 14:00 345 1 gusting 6 3.1
2019-Dec-07 13:55 030 3 gusting 6 3.0
2019-Dec-07 13:50 015 2 gusting 3 2.6
2019-Dec-07 13:45 2.4
2019-Dec-07 13:40 310 1 gusting 2 2.1
2019-Dec-07 13:35 325 0 gusting 1 1.6
2019-Dec-07 13:30 1.4
2019-Dec-07 13:25 260 0 gusting 1 1.1
2019-Dec-07 13:20 265 0 gusting 2 0.8
2019-Dec-07 13:15 270 1 gusting 3 0.6
2019-Dec-07 13:10 285 2 gusting 3 0.3
2019-Dec-07 13:05 285 2 gusting 3 0.1
2019-Dec-07 13:00 285 2 gusting 2 -0.3
2019-Dec-07 12:55 275 2 gusting 2 -0.4
2019-Dec-07 12:50 250 1 gusting 2 -0.7
2019-Dec-07 12:45 245 1 gusting 2 -0.8
2019-Dec-07 12:40 240 1 gusting 2 -0.9
2019-Dec-07 12:35 240 1 gusting 2 -0.9
2019-Dec-07 12:30 245 1 gusting 3 -0.9
2019-Dec-07 12:25 260 2 gusting 3 -0.9
2019-Dec-07 12:20 280 3 gusting 3 -0.8
2019-Dec-07 12:15 285 2 gusting 3 -0.7
2019-Dec-07 12:10 280 2 gusting 3 -0.5
2019-Dec-07 12:05 265 2 gusting 2 -0.4
2019-Dec-07 12:00 265 2 gusting 2 -0.1
2019-Dec-07 11:55 275 1 gusting 2 -0.0
2019-Dec-07 11:50 285 1 gusting 2 0.2
2019-Dec-07 11:45 315 1 gusting 2 0.3
2019-Dec-07 11:40 335 1 gusting 2 0.5
2019-Dec-07 11:35 340 1 gusting 3 0.6
2019-Dec-07 11:30 355 1 gusting 3 0.6
2019-Dec-07 11:25 355 1 gusting 2 0.7
2019-Dec-07 11:20 350 1 gusting 2 0.7
2019-Dec-07 11:15 345 1 gusting 2 1.0
2019-Dec-07 11:10 340 1 gusting 2 1.0
2019-Dec-07 11:05 325 1 gusting 3 1.1
2019-Dec-07 11:00 310 1 gusting 3 1.1
2019-Dec-07 10:55 325 1 gusting 2 1.2
2019-Dec-07 10:50 335 2 gusting 3 1.5
2019-Dec-07 10:45 310 0 gusting 3 1.5
2019-Dec-07 10:40 350 1 gusting 5 1.6
2019-Dec-07 10:35 345 2 gusting 5 1.6
2019-Dec-07 10:30 1.9
2019-Dec-07 10:25 2.0
2019-Dec-07 10:20 305 2 gusting 7 2.0
2019-Dec-07 10:15 2.1
2019-Dec-07 10:10 345 3 gusting 8 2.1
2019-Dec-07 10:05 355 4 gusting 8 2.0
2019-Dec-07 10:00 340 3 gusting 8 2.0
2019-Dec-07 09:55 350 2 gusting 8 2.0
2019-Dec-07 09:50 345 4 gusting 7 2.0
2019-Dec-07 09:45 340 3 gusting 6 2.0
2019-Dec-07 09:40 335 2 gusting 4 2.1
2019-Dec-07 09:35 340 1 gusting 3 2.1
2019-Dec-07 09:30 315 1 gusting 4 2.1
2019-Dec-07 09:25 315 2 gusting 5 2.2
2019-Dec-07 09:20 345 3 gusting 5 2.2
2019-Dec-07 09:15 325 2 gusting 4 2.4
2019-Dec-07 09:10 340 1 gusting 6 2.4
2019-Dec-07 09:05 345 3 gusting 6 2.6
2019-Dec-07 09:00 355 2 gusting 4 2.6
2019-Dec-07 08:55 340 1 gusting 4 2.6
2019-Dec-07 08:50 335 1 gusting 4 2.6
2019-Dec-07 08:45 345 2 gusting 6 2.7
2019-Dec-07 08:40 355 1 gusting 6 2.7
2019-Dec-07 08:35 010 2 gusting 5 2.9
2019-Dec-07 08:30 3.1
2019-Dec-07 08:25 350 2 gusting 6 3.1
2019-Dec-07 08:20 355 2 gusting 5 3.2
2019-Dec-07 08:15 005 3 gusting 6 3.2
2019-Dec-07 08:10 3.5
2019-Dec-07 08:05 3.5
2019-Dec-07 08:00 350 3 gusting 5 3.4
2019-Dec-07 07:55 345 2 gusting 5 3.6
2019-Dec-07 07:50 3.6
2019-Dec-07 07:45 345 3 gusting 5 3.7
2019-Dec-07 07:40 345 1 gusting 6 3.7
2019-Dec-07 07:35 015 2 gusting 6 3.9
2019-Dec-07 07:30 015 3 gusting 6 3.9
2019-Dec-07 07:25 005 3 gusting 5 4.0
2019-Dec-07 07:20 010 2 gusting 5 4.1
2019-Dec-07 07:15 350 3 gusting 7 4.1
2019-Dec-07 07:10 4.2
2019-Dec-07 07:05 020 4 gusting 6 4.3
2019-Dec-07 07:00 350 3 gusting 7 4.5
2019-Dec-07 06:55 010 4 gusting 8 4.5
2019-Dec-07 06:50 4.3
2019-Dec-07 06:45 010 3 gusting 5 4.5
2019-Dec-07 06:40 4.6
2019-Dec-07 06:35 030 2 gusting 5 4.6
2019-Dec-07 06:30 025 2 gusting 5 4.7
2019-Dec-07 06:25 025 2 gusting 5 5.1
2019-Dec-07 06:20 020 2 gusting 5 5.1
2019-Dec-07 06:15 020 2 gusting 7 5.3
2019-Dec-07 06:10 5.6
2019-Dec-07 06:05 355 3 gusting 6 5.7
2019-Dec-07 06:00 345 4 gusting 8 5.8
2019-Dec-07 05:55 355 3 gusting 9 6.1
2019-Dec-07 05:50 6.2
2019-Dec-07 05:45 355 6 gusting 10 6.6
2019-Dec-07 05:40 010 5 gusting 8 6.7
2019-Dec-07 05:35 330 2 gusting 9 7.0
2019-Dec-07 05:30 355 4 gusting 12 7.0
2019-Dec-07 05:25 010 5 gusting 12 7.1
2019-Dec-07 05:20 7.2
2019-Dec-07 05:15 350 3 gusting 13 7.5
2019-Dec-07 05:10 010 6 gusting 13 7.6
2019-Dec-07 05:05 7.8
2019-Dec-07 05:00 345 5 gusting 10 7.8
2019-Dec-07 04:55 8.0
2019-Dec-07 04:50 355 4 gusting 9 8.1
2019-Dec-07 04:45 305 2 gusting 11 8.1
2019-Dec-07 04:40 350 6 gusting 11 8.2
2019-Dec-07 04:35 335 7 gusting 11 8.5
2019-Dec-07 04:30 345 6 gusting 13 8.6
2019-Dec-07 04:25 8.6
2019-Dec-07 04:20 8.6
2019-Dec-07 04:15 345 5 gusting 10 8.6
2019-Dec-07 04:10 010 3 gusting 11 8.7
2019-Dec-07 04:05 015 5 gusting 11 8.7
2019-Dec-07 04:00 345 5 gusting 9 8.8
2019-Dec-07 03:55 325 5 gusting 10 9.1
2019-Dec-07 03:50 340 6 gusting 10 9.1
2019-Dec-07 03:45 335 5 gusting 11 9.1
2019-Dec-07 03:40 345 6 gusting 10 9.1
2019-Dec-07 03:35 335 4 gusting 9 9.2
2019-Dec-07 03:30 340 4 gusting 9 9.3
2019-Dec-07 03:25 325 3 gusting 9 9.3
2019-Dec-07 03:20 345 3 gusting 9 9.3
2019-Dec-07 03:15 335 5 gusting 7 9.2
2019-Dec-07 03:10 340 4 gusting 8 9.1
2019-Dec-07 03:05 9.1
2019-Dec-07 03:00 345 4 gusting 7 9.1
2019-Dec-07 02:55 325 2 gusting 6 9.1
2019-Dec-07 02:50 280 4 gusting 6 9.1
2019-Dec-07 02:45 280 3 gusting 6 9.1
2019-Dec-07 02:40 265 4 gusting 6 9.1
2019-Dec-07 02:35 275 5 gusting 8 9.2
2019-Dec-07 02:30 290 5 gusting 8 9.3
2019-Dec-07 02:25 270 5 gusting 6 9.5
2019-Dec-07 02:20 280 4 gusting 8 9.5
2019-Dec-07 02:15 285 5 gusting 8 9.6
2019-Dec-07 02:10 285 5 gusting 8 9.6
2019-Dec-07 02:05 285 5 gusting 8 9.7
2019-Dec-07 02:00 285 5 gusting 8 9.8
2019-Dec-07 01:55 285 4 gusting 8 9.8
2019-Dec-07 01:50 285 5 gusting 7 10.0
2019-Dec-07 01:45 285 4 gusting 8 10.1
2019-Dec-07 01:40 285 4 gusting 8 10.2
2019-Dec-07 01:35 265 4 gusting 8 10.3
2019-Dec-07 01:30 260 3 gusting 7 10.2
2019-Dec-07 01:25 265 4 gusting 6 10.2
2019-Dec-07 01:20 255 4 gusting 6 10.2
2019-Dec-07 01:15 255 4 gusting 7 10.2
2019-Dec-07 01:10 270 5 gusting 7 10.3
2019-Dec-07 01:05 255 5 gusting 8 10.4
2019-Dec-07 01:00 235 4 gusting 8 10.6
2019-Dec-07 00:55 270 5 gusting 6 10.4
2019-Dec-07 00:50 260 4 gusting 8 10.6
2019-Dec-07 00:45 235 5 gusting 8 10.7
2019-Dec-07 00:40 250 4 gusting 6 10.7
2019-Dec-07 00:35 240 4 gusting 6 10.7
2019-Dec-07 00:30 240 3 gusting 8 10.7
2019-Dec-07 00:25 235 5 gusting 8 10.8
2019-Dec-07 00:20 240 4 gusting 9 10.8
2019-Dec-07 00:15 260 4 gusting 10 10.8
2019-Dec-07 00:10 265 6 gusting 10 10.9
2019-Dec-07 00:05 255 5 gusting 8 10.9
2019-Dec-07 00:00 260 3 gusting 7 10.8
2019-Dec-06 23:55 255 3 gusting 7 10.8
2019-Dec-06 23:50 245 3 gusting 7 10.8
2019-Dec-06 23:45 235 3 gusting 7 10.8
2019-Dec-06 23:40 245 5 gusting 8 10.7
2019-Dec-06 23:35 225 5 gusting 8 10.7
2019-Dec-06 23:30 235 6 gusting 8 10.7
2019-Dec-06 23:25 225 5 gusting 9 10.6
2019-Dec-06 23:20 230 5 gusting 9 10.6
2019-Dec-06 23:15 225 6 gusting 9 10.6
2019-Dec-06 23:10 225 6 gusting 8 10.6
2019-Dec-06 23:05 225 6 gusting 8 10.6
2019-Dec-06 23:00 215 4 gusting 8 10.7